This is the latest recevied weather packets stored in our database for station/object GCEMA. If no packets are shown the sender has not sent any weather packets the latest 10 day(s).
| Time | Temp. | Humidity | Pressure | Rain* | Wind** | Luminosity | Snow |
|---|---|---|---|---|---|---|---|
| 1777861244 | 18.89° C | - | 1008.7 hPa | 0 mm | 0 m/s | - | - |
| 1777860525 | 18.89° C | - | 1008.6 hPa | 0 mm | 0 m/s | - | - |
| 1777859982 | 18.89° C | - | 1008.6 hPa | 0 mm | 0 m/s | - | - |
| 1777859081 | 19.44° C | - | 1008.7 hPa | 0 mm | 0 m/s | - | - |
| 1777858545 | 19.44° C | - | 1008.7 hPa | 0 mm | 0 m/s | - | - |
| 1777858181 | 20° C | - | 1008.7 hPa | 0 mm | 0 m/s | - | - |
| 1777857822 | 20° C | - | 1008.8 hPa | 0 mm | 0 m/s | - | - |
| 1777857281 | 19.44° C | - | 1008.8 hPa | 0 mm | 0 m/s | - | - |
| 1777856922 | 20° C | - | 1008.7 hPa | 0 mm | 0 m/s | - | - |
| 1777856744 | 20° C | - | 1008.8 hPa | 0 mm | 0 m/s | - | - |
| 1777856563 | 20° C | - | 1008.8 hPa | 0 mm | 0 m/s | - | - |
| 1777856202 | 20° C | - | 1008.8 hPa | 0 mm | 0 m/s | - | - |
| 1777856021 | 20° C | - | 1008.8 hPa | 0 mm | 0 m/s | - | - |
| 1777855842 | 20.56° C | - | 1008.8 hPa | 0 mm | 0 m/s | - | - |
| 1777855662 | 20.56° C | - | 1008.9 hPa | 0 mm | 0 m/s | - | - |
| 1777855480 | 20.56° C | - | 1009 hPa | 0 mm | 0 m/s | - | - |
| 1777855121 | 20° C | - | 1009 hPa | 0 mm | 0 m/s | - | - |
| 1777854941 | 20° C | - | 1009.1 hPa | 0 mm | 0 m/s | - | - |
| 1777854762 | 19.44° C | - | 1009.1 hPa | 0 mm | 0 m/s | - | - |
| 1777854579 | 20.56° C | - | 1009.2 hPa | 0 mm | 0 m/s | - | - |
| 1777854400 | 20° C | - | 1009.2 hPa | 0 mm | 0 m/s | - | - |
| 1777854220 | 20° C | - | 1009.3 hPa | 0 mm | 0 m/s | - | - |
| 1777854042 | 20.56° C | - | 1009.3 hPa | 0 mm | 0 m/s | - | - |
| 1777853861 | 19.44° C | - | 1009.5 hPa | 0 mm | 0 m/s | - | - |
| 1777853679 | 18.89° C | - | 1009.5 hPa | 0 mm | 0 m/s | - | - |
* Rain latest hour (hover to see other rain measurements)
** Current wind speed in m/s (hover to see current wind gust speed)